Flag for Norway Weather past 2 weeks in Hommelvik, Norway

Now
32 °F

Passing clouds.


Feels Like: 29 °F
Forecast: 38 / 48 °F
Wind: 3 mph from Southeast

Location: Trondheim / Vaernes

Current Time: Mar 28, 2015 at 1:40:31 AM

Latest Report: Mar 28, 2015 at 12:00 AM


Visibility: 31 mi

Pressure: 29.81 "Hg

Humidity: 88%

Dew point: 29 °F

Location of HommelvikLocation

Historic Weather in Hommelvik — Graph

°F

Hommelvik temperature yesterday

Maximum temperature yesterday: 40 °F (at 4:00 PM)
Minimum temperature yesterday: 33 °F (at 11:00 PM)
Average temperature yesterday: 38 °F

Past Weeks' High & Low Weather Summary

 TemperatureHumidityPressure
High53 °F (Mar 13, 2:00 PM)97% (Mar 23, 3:00 AM)30.85 "Hg (Mar 23, 3:00 AM)
Low20 °F (Mar 21, 6:00 AM)25% (Mar 15, 8:00 PM)29.15 "Hg (Mar 23, 1:00 PM)
Average39 °F65%30.23 "Hg
* Reported Midnight between Mar 12 and Mar 13 — Midnight between Mar 27 and Mar 28, Hommelvik, Weather by CustomWeather, © 2015

Note: Actual official high and low records may vary slightly from our data, if they occured in-between our weather recording intervals... More about our weather records

Advertising

Hommelvik weather history for previous 24 hours

 ConditionsComfort  
Time TempWeatherWind HumidityBarometerVisibility
12:00 AM
Sat, Mar 28
32 °FPassing clouds.3 mph88%29.81 "Hg31 mi
11:00 PM
Fri, Mar 27
33 °FOvercast.3 mph87%29.80 "Hg25 mi
9:00 PM35 °FOvercast.2 mph86%29.80 "Hg28 mi
8:00 PM38 °FRain showers. Passing clouds.2 mph80%29.80 "Hg22 mi
7:00 PM38 °FFog.2 mph70%29.80 "Hg22 mi
6:00 PM39 °FPassing clouds.1 mph68%29.79 "Hg31 mi
5:00 PM39 °FSunny.No wind66%29.79 "Hg31 mi
4:00 PM40 °FOvercast.2 mph68%29.79 "Hg31 mi
3:00 PM39 °FOvercast.5 mph69%29.80 "Hg31 mi
2:00 PM39 °FPartly sunny.5 mph77%29.80 "Hg31 mi
1:00 PM39 °FPartly sunny.3 mph75%29.80 "Hg28 mi
12:00 PM39 °FOvercast.3 mph70%29.80 "Hg31 mi
11:00 AM39 °FOvercast.3 mph66%29.80 "Hg31 mi
10:00 AM39 °FChilly.2 mph73%29.80 "Hg28 mi
9:00 AM38 °FOvercast.3 mph74%29.80 "Hg28 mi
8:00 AM37 °FChilly.1 mph71%29.80 "Hg31 mi
7:00 AM37 °FOvercast.1 mph66%29.80 "Hg31 mi
6:00 AM38 °FOvercast.1 mph61%29.78 "Hg31 mi
5:00 AM38 °FOvercast.2 mph60%29.78 "Hg25 mi
3:00 AM38 °FPassing clouds.3 mph60%29.77 "Hg31 mi
2:00 AM37 °FPassing clouds.3 mph59%29.77 "Hg31 mi
1:00 AM38 °FClear.5 mph58%29.76 "Hg31 mi
Weather by CustomWeather, © 2015

See weather overviewHow to use our weather pages